Location: Bad Dürkheim
(49.4618°N, 8.1724°E)
Time: 20:12:28
(UTC+00:00)

Cosmos 1869 Rocket - Pass Details

Date: 14 June 2025
Orbit: 598 x 627 km, 82.5° (Epoch: 16 July)

Event Time Altitude Azimuth Distance (km) Brightness Sun altitude
Rises 21:39:02 0° 348° (NNW) 2,906 8.7 -13.3°
Reaches altitude 10° 21:41:17 10° 348° (NNW) 1,991 7.5 -13.5°
Maximum altitude 21:45:41 78° 262° (W) 632 3.6 -13.8°
Enters shadow 21:48:34 21° 178° (S) 1,391 4.8 -14.0°
